Regional Weather Roundup
Issued by NWS Mt. Holly, NJ

Home | Current Version | Previous Version | Text Only | Print | Product List | Glossary On
Versions: 1 2 3 4 5 6 7 8 9 10 11 12 13 14 15 16 17 18 19 20 21 22 23 24 25 26 27 28 29 30 31 32 33 34 35 36 37 38 39 40 41 42 43 44 45 46 47 48 49 50
000
ASUS41 KPHI 231010
RWRPHI

REGIONAL WEATHER ROUNDUP
NATIONAL WEATHER SERVICE MOUNT HOLLY NJ
600 AM EDT WED JUL 23 2014

NOTE:  "FAIR" INDICATES FEW OR NO CLOUDS BELOW 12,000 FEET WITH NO
SIGNIFICANT WEATHER AND/OR OBSTRUCTIONS TO VISIBILITY.

 * = STATION DOES NOT REPORT PRECIPITATION (E.G. RAIN, SNOW, ETC.)
        OR FOG.

NJZ015>026-231100-
SOUTHERN NEW JERSEY

CITY           SKY/WX    TMP DP  RH WIND       PRES   REMARKS
POMONA         CLEAR     68  67  96 S3        30.02S
RIO GRANDE*    CLOUDY    72  66  83 SW5       30.03S
MILLVILLE      CLEAR     67  66  97 CALM      30.01F FOG
WRIGHTSTOWN    CLEAR     67  67  99 SW3       29.99F
MOUNT HOLLY    MOCLDY    68  66  93 CALM      29.99F
TRENTON        CLEAR     67  63  87 CALM      29.99F

$$
NJZ001>014-231100-
NORTHERN NEW JERSEY

CITY           SKY/WX    TMP DP  RH WIND       PRES   REMARKS
SUSSEX         CLEAR     68  65  90 CALM      29.98S FOG
ANDOVER*         N/A     68  66  93 CALM      29.99F
MORRISTOWN     MOCLDY    70  63  78 CALM      29.98F
NEWARK         PTCLDY    71  64  78 S6        29.97F
TETERBORO      PTCLDY    74  63  68 S8        29.96F
CALDWELL       MOCLDY    71  62  73 CALM      29.98F
SOMERVILLE     PTCLDY    65  63  93 MISG      29.97F
ALLAIRE*       CLEAR     70  64  83 SW7       30.00F
TOMS RIVER*    CLEAR     66  66 100 SW3       30.01F

$$
PAZ043-044-047-054-055-060>062-066>071-231100-
EASTERN PENNSYLVANIA

CITY           SKY/WX    TMP DP  RH WIND       PRES   REMARKS
PHILADELPHIA   MOCLDY    72  65  78 S9G18     30.00F
NORTH PHILA    PTCLDY    73  65  75 VRB3      30.00F
BLUE BELL      CLEAR     70  68  94 CALM      29.98F
DOYLESTOWN     CLEAR     67  66  97 S3        29.99F
QUAKERTOWN*    CLEAR     66  64  94 CALM      30.01S
POTTSTOWN      PTCLDY    67  65  93 CALM      30.01F
LANCASTER      PTCLDY    67  64  90 CALM      29.99F
COATESVILLE    CLEAR     68  68 100 W5        30.02S
READING        CLEAR     71  65  81 CALM      29.98F
ALLENTOWN      PTCLDY    69  65  86 CALM      29.99F
MOUNT POCONO   CLEAR     67  64  90 W5        30.03F FOG
HAZLETON       CLEAR     68  66  94 CALM      30.05S FOG
WILKES BARRE   CLEAR     72  67  84 CALM      29.98F

$$
DEZALL-MDZ008-012-015-019-020-231100-
DELAWARE AND EASTERN MARYLAND

CITY           SKY/WX    TMP DP  RH WIND       PRES   REMARKS
WILMINGTON     CLEAR     71  68  90 S6        30.00F
DOVER          CLOUDY    71  71 100 S7        29.99F
GEORGETOWN     CLOUDY    69  68  96 S9        30.03S FOG
EASTON         CLEAR     74  74 100 CALM      30.04F
PATUXENT       PTCLDY    73  71  93 S3        30.01F
OCEAN CITY     FOG       66  65  96 CALM      30.02F VSB 3/4
WALLOPS ISLAND CLEAR     70  68  93 CALM      30.03S
CAMBRIDGE      MOCLDY    72  68  88 CALM      30.01F

$$
PAZ001-021-NYZ056-072-MDZ011-DCZ001-231100-
OTHER NEARBY LOCATIONS

CITY           SKY/WX    TMP DP  RH WIND       PRES   REMARKS
HARRISBURG     PTCLDY    73  68  84 SE3       29.97F
STATE COLLEGE  PTCLDY    70  68  94 SW6       30.01R
WILLIAMSPORT   CLEAR     70  67  90 CALM      29.96R
BINGHAMTON     CLEAR     70  67  90 SW9       29.98S
NEW YORK CITY  PTCLDY    73  63  70 VRB3      30.00F
BALTIMORE      PTCLDY    71  68  90 S6        29.98F
WASHINGTON DC  PTCLDY    75  69  81 S9        30.00F

$$


USA.gov is the U.S. government's official web portal to all federal, state and local government web resources and services.